Regional Weather Roundup
Issued by NWS Little Rock, AR

Home | Current Version | Previous Version | Graphics & Text | Print | Product List | Glossary On
Versions: 1 2 3 4 5 6 7 8 9 10 11 12 13 14 15 16 17 18 19 20 21 22 23 24 25 26 27 28 29 30 31
000
ASUS44 KLZK 232305
RWRLZK

WEATHER ROUNDUP FOR ARKANSAS
NATIONAL WEATHER SERVICE LITTLE ROCK AR
600 PM CDT MON OCT 23 2017

NOTE: "FAIR" INDICATES FEW OR NO CLOUDS BELOW 12,000 FEET WITH NO
SIGNIFICANT WEATHER AND/OR OBSTRUCTIONS TO VISIBILITY.

ARZ001-003-010-029-240000-
NORTHWEST ARKANSAS

CITY           SKY/WX    TMP DP  RH WIND       PRES   REMARKS
FAYETTEVILLE   CLEAR     64  43  46 NW10      30.02S
FORT SMITH     CLEAR     72  44  36 NW14      30.01R
HARRISON       CLEAR     64  41  42 NW9G18    29.98R
BENTONVILLE    CLEAR     65  43  44 NW13      30.04S
ROGERS         CLEAR     64  43  46 NW10      30.02S
SILOAM SPGS    CLEAR     65  44  46 NW13      30.04S
HIGHFILL       CLEAR     65  43  44 NW9       30.03S
SPRINGDALE     CLEAR     66  43  42 NW12      30.03F
$$

ARZ004-005-016-240000-
NORTH CENTRAL ARKANSAS

CITY           SKY/WX    TMP DP  RH WIND       PRES   REMARKS
BATESVILLE     CLEAR     70  44  39 SW12      29.88F
FLIPPIN        CLEAR     67  43  41 NW13      29.95R
MTN HOME       CLEAR     65  44  46 N8        29.93R
$$

ARZ040-041-240000-
WEST CENTRAL ARKANSAS

CITY           SKY/WX    TMP DP  RH WIND       PRES   REMARKS
MENA           CLEAR     73  45  35 W8G16     30.02R
MOUNT IDA      CLEAR     74  38  27 NW7G17    29.97R
$$

ARZ009-017-025-026-028-240000-
NORTHEAST ARKANSAS

CITY           SKY/WX    TMP DP  RH WIND       PRES   REMARKS
JONESBORO      CLEAR     70  47  43 SW12      29.85F
NEWPORT        CLEAR     71  45  39 SW12      29.88R
WALNUT RIDGE   CLEAR     70  47  43 SW12      29.85R
BLYTHEVILLE    CLEAR     68  47  46 SW9       29.86F
$$

ARZ022-023-033-042-044-240000-
CENTRAL ARKANSAS

CITY           SKY/WX    TMP DP  RH WIND       PRES   REMARKS
LITTLE ROCK    PTCLDY    71  45  39 SW7       29.94R
N LITTLE ROCK    N/A     73  45  37 W6        29.96R
JACKSONVILLE   CLEAR     74  45  35 W9        29.92R
SEARCY         CLEAR     73  45  36 VRB6      29.92R
HOT SPRINGS    CLEAR     74  45  35 W10       29.97R
RUSSELLVILLE   CLEAR     72  46  39 W12       29.94S
CLINTON        FAIR      70  46  43 SW9G18    29.92S
$$

ARZ036-240000-
EAST ARKANSAS

CITY           SKY/WX    TMP DP  RH WIND       PRES   REMARKS
WEST MEMPHIS   CLEAR     68  44  42 SW7       29.89F
$$

ARZ050-053-066-070-073-240000-
SOUTHWEST ARKANSAS

CITY           SKY/WX    TMP DP  RH WIND       PRES   REMARKS
CAMDEN         CLEAR     73  45  35 SW3       29.97F
TEXARKANA      CLEAR     75  44  33 W9        30.00S
EL DORADO      CLEAR     70  48  45 SW6       29.99F
DE QUEEN       CLEAR     74  47  38 W5        29.98S
$$

ARZ056-057-069-240000-
SOUTHEAST ARKANSAS

CITY           SKY/WX    TMP DP  RH WIND       PRES   REMARKS
PINE BLUFF     CLEAR     70  47  43 SW8       29.95F
STUTTGART      CLEAR     70  47  43 SW10      29.93S
MONTICELLO     CLEAR     70  46  42 SW3       29.97F

$$






USA.gov is the U.S. government's official web portal to all federal, state and local government web resources and services.